Regional Weather Roundup
Issued by NWS

Home | Current Version | Previous Version | Text Only | Print | Product List | Glossary On
Versions: 1 2 3 4 5 6 7 8 9 10 11 12 13 14 15 16 17 18 19 20 21 22 23 24 25 26 27 28 29 30 31 32 33 34 35 36 37 38 39 40 41 42 43 44 45 46 47 48 49 50
000
ASUS44 KMEG 262110
RWRTN
TENNESSEE HOURLY STATE WEATHER ROUNDUP
NATIONAL WEATHER SERVICE MEMPHIS TN
300 PM CST FRI DEC 26 2014

TNZ002-004-019-021-049-052-054-088>092-262200-
WEST TENNESSEE

CITY           SKY/WX    TMP DP  RH WIND       PRES   REMARKS
MEMPHIS INTL   CLOUDY    55  34  45 SE14      30.15F
NWS MEMPHIS      N/A     54 N/A N/A MISG        N/A
JACKSON        CLOUDY    55  39  54 S8        30.19S
DYERSBURG      CLOUDY    52  34  50 SE9       30.18F
UNION CITY     SUNNY     52  41  66 S6        30.16S
PARIS          SUNNY     50  39  66 SE10      30.17F
HUNTINGDON     CLOUDY    51  37  58 S15       30.19
LEXINGTON      SUNNY     50  37  62 S5        30.21S
SAVANNAH       SUNNY     48  39  71 VRB3      30.22F
$$

TNZ008-025-027-028-033-062-065-066-262200-
NORTH MIDDLE TENNESSEE

CITY           SKY/WX    TMP DP  RH WIND       PRES   REMARKS
NASHVILLE      PTSUNNY   53  38  56 S10       30.24R
CLARKSVILLE    SUNNY     55  38  52 S9        30.19S
SMYRNA         PTSUNNY   51  37  58 S8        30.26R
COOKEVILLE     SUNNY     52  37  58 CALM      30.25R
CROSSVILLE     PTSUNNY   48  31  51 SE6       30.25S
$$

TNZ061-075-076-078-094-096-097-262200-
SOUTH MIDDLE TENNESSEE

CITY           SKY/WX    TMP DP  RH WIND       PRES   REMARKS
FAYETTEVILLE   SUNNY     48  36  61 MISG      30.24F
TULLAHOMA      SUNNY     48  36  61 CALM      30.24F
WINCHESTER     SUNNY     48  36  61 SE7       30.24F
MCMINNVILLE    SUNNY     50  39  66 CALM      30.25R
COLUMBIA       SUNNY     48  45  87 S3        30.23R
SHELBYVILLE    SUNNY     48  39  71 S3        30.25S
$$

TNZ017-018-042-046-047-262200-
NORTHEAST TENNESSEE

CITY           SKY/WX    TMP DP  RH WIND       PRES   REMARKS
TRI CITIES     PTSUNNY   55  25  31 W6        30.28R
ELIZABETHTON   CLEAR     55  16  21 W7        30.27R
$$

TNZ012-013-036-069-073-074-262200-
CENTRAL EAST TENNESSEE

CITY           SKY/WX    TMP DP  RH WIND       PRES   REMARKS
KNOXVILLE      PTSUNNY   49  35  58 CALM      30.30R
OAK RIDGE      SUNNY     51  34  52 CALM      30.30S
GATLINBURG     CLEAR     50  34  53 NW3       30.30R
MORRISTOWN     CLEAR     50  30  46 SW8       30.30R
$$

TNZ083-085-099-262200-
SOUTHEAST TENNESSEE

CITY           SKY/WX    TMP DP  RH WIND       PRES   REMARKS
CHATTANOOGA    CLOUDY    54  37  52 CALM      30.27F
$$

SKY/WX REPORTED AS FAIR MEANS FEW OR NO CLOUDS BELOW
12 THOUSAND FEET.



USA.gov is the U.S. government's official web portal to all federal, state and local government web resources and services.